When you browse on this site, cookies collect data to enhance your experience and personalize the content and advertising you see.
Visit our Privacy Policy to learn more. By continuing to use the site, you agree to this use of cookies and data.
  • In Hungary
  • List of Countries
  • For 7 days
  • Water Temperature
  • Satellite Maps
  • Weather Map
  • News
  • Weather Widgets
  • user-avatar
    Login

    Hourly Weather Rees

    Today, 17 February, Sunday

    Time Temperature Precipitation Wind Pressure Humidity
    00:00 +7°C° 0 mm 2 mps 767 mmHg 85%
    01:00 +7°C° 0 mm 2 mps 766 mmHg 85%
    02:00 +6°C° 0 mm 2 mps 766 mmHg 85%
    03:00 +6°C° 0 mm 2 mps 766 mmHg 85%
    04:00 +6°C° 0 mm 2 mps 765 mmHg 84%
    05:00 +6°C° 0 mm 2 mps 765 mmHg 82%
    06:00 +4°C° 0 mm 3 mps 765 mmHg 81%
    07:00 +5°C° 0 mm 3 mps 765 mmHg 77%
    08:00 +7°C° 0 mm 3 mps 765 mmHg 73%
    09:00 +8°C° 0 mm 3 mps 764 mmHg 70%
    10:00 +10°C° 0 mm 3 mps 764 mmHg 65%
    11:00 +11°C° 0 mm 3 mps 764 mmHg 61%
    12:00 +13°C° 0 mm 4 mps 764 mmHg 56%
    13:00 +13°C° 0 mm 3 mps 763 mmHg 56%
    14:00 +13°C° 0 mm 3 mps 763 mmHg 56%
    15:00 +14°C° 0 mm 3 mps 763 mmHg 56%
    16:00 +12°C° 0 mm 3 mps 763 mmHg 60%
    17:00 +11°C° 0 mm 3 mps 763 mmHg 65%
    18:00 +10°C° 0 mm 3 mps 763 mmHg 69%
    19:00 +9°C° 0 mm 3 mps 763 mmHg 71%
    20:00 +8°C° 0 mm 3 mps 763 mmHg 73%
    21:00 +8°C° 0 mm 3 mps 763 mmHg 75%
    22:00 +7°C° 0 mm 3 mps 763 mmHg 75%
    23:00 +7°C° 0 mm 3 mps 763 mmHg 75%

    Tomorrow, 18 February, Monday

    Time Temperature Precipitation Wind Pressure Humidity
    00:00 +5°C° 0 mm 3 mps 763 mmHg 75%
    01:00 +5°C° 0 mm 3 mps 763 mmHg 76%
    02:00 +5°C° 0 mm 3 mps 763 mmHg 77%
    03:00 +4°C° 0 mm 3 mps 763 mmHg 77%
    04:00 +4°C° 0 mm 3 mps 763 mmHg 78%
    05:00 +4°C° 0 mm 3 mps 763 mmHg 78%
    06:00 +4°C° 0 mm 3 mps 762 mmHg 79%
    07:00 +5°C° 0 mm 3 mps 762 mmHg 75%
    08:00 +7°C° 0 mm 3 mps 762 mmHg 71%
    09:00 +7°C° 0 mm 4 mps 762 mmHg 67%
    10:00 +8°C° 0 mm 4 mps 762 mmHg 63%
    11:00 +11°C° 0 mm 4 mps 762 mmHg 59%
    12:00 +12°C° 0 mm 4 mps 762 mmHg 56%
    13:00 +12°C° 0 mm 3 mps 762 mmHg 56%
    14:00 +13°C° 0 mm 3 mps 761 mmHg 56%
    15:00 +13°C° 0 mm 3 mps 761 mmHg 57%
    16:00 +11°C° 0 mm 3 mps 761 mmHg 62%
    17:00 +10°C° 0 mm 3 mps 761 mmHg 67%
    18:00 +9°C° 0 mm 3 mps 761 mmHg 72%
    19:00 +8°C° 0 mm 3 mps 761 mmHg 75%
    20:00 +8°C° 0 mm 3 mps 761 mmHg 79%
    21:00 +7°C° 0 mm 4 mps 761 mmHg 82%
    22:00 +6°C° 0 mm 4 mps 761 mmHg 83%
    23:00 +6°C° 0 mm 4 mps 761 mmHg 84%

    Day after tomorrow, 19 February, Tuesday

    Time Temperature Precipitation Wind Pressure Humidity
    00:00 +6°C° 0 mm 4 mps 761 mmHg 85%
    01:00 +7°C° 0.2 mm 3 mps 761 mmHg 87%
    02:00 +7°C° 0.2 mm 3 mps 761 mmHg 89%
    03:00 +7°C° 0.2 mm 3 mps 761 mmHg 92%
    04:00 +7°C° 0.6 mm 3 mps 761 mmHg 93%
    05:00 +7°C° 0.6 mm 3 mps 762 mmHg 94%
    06:00 +7°C° 0.6 mm 3 mps 762 mmHg 95%
    07:00 +6°C° 0 mm 4 mps 762 mmHg 92%
    08:00 +6°C° 0 mm 4 mps 763 mmHg 89%
    09:00 +7°C° 0 mm 4 mps 763 mmHg 86%
    10:00 +7°C° 0 mm 5 mps 763 mmHg 82%
    11:00 +8°C° 0 mm 5 mps 763 mmHg 79%
    12:00 +8°C° 0 mm 5 mps 763 mmHg 75%
    13:00 +9°C° 0 mm 5 mps 763 mmHg 71%
    14:00 +9°C° 0 mm 5 mps 763 mmHg 68%
    15:00 +10°C° 0 mm 4 mps 763 mmHg 64%
    16:00 +8°C° 0 mm 4 mps 764 mmHg 69%
    17:00 +8°C° 0 mm 3 mps 764 mmHg 74%
    18:00 +6°C° 0 mm 2 mps 764 mmHg 79%
    19:00 +6°C° 0 mm 2 mps 764 mmHg 81%
    20:00 +5°C° 0 mm 2 mps 765 mmHg 83%
    21:00 +5°C° 0 mm 2 mps 765 mmHg 85%
    22:00 +5°C° 0 mm 2 mps 765 mmHg 86%
    23:00 +4°C° 0 mm 2 mps 765 mmHg 87%

    20 February, Wednesday

    Time Temperature Precipitation Wind Pressure Humidity
    00:00 +4°C° 0 mm 2 mps 765 mmHg 87%
    01:00 +3°C° 0 mm 3 mps 765 mmHg 88%
    02:00 +3°C° 0 mm 3 mps 765 mmHg 89%
    03:00 +3°C° 0 mm 3 mps 765 mmHg 90%
    04:00 +3°C° 0 mm 3 mps 765 mmHg 91%
    05:00 +2°C° 0 mm 3 mps 765 mmHg 91%
    06:00 +2°C° 0 mm 3 mps 765 mmHg 91%
    07:00 +3°C° 0 mm 3 mps 766 mmHg 87%
    08:00 +4°C° 0 mm 3 mps 766 mmHg 84%
    09:00 +5°C° 0 mm 3 mps 766 mmHg 80%
    10:00 +6°C° 0 mm 4 mps 766 mmHg 75%
    11:00 +8°C° 0 mm 4 mps 767 mmHg 69%
    12:00 +10°C° 0 mm 4 mps 767 mmHg 64%
    13:00 +10°C° 0 mm 4 mps 766 mmHg 64%
    14:00 +11°C° 0 mm 4 mps 766 mmHg 63%
    15:00 +11°C° 0 mm 4 mps 766 mmHg 63%
    16:00 +10°C° 0 mm 3 mps 766 mmHg 68%
    17:00 +9°C° 0 mm 3 mps 767 mmHg 73%
    18:00 +7°C° 0 mm 2 mps 767 mmHg 78%
    19:00 +7°C° 0 mm 3 mps 767 mmHg 78%
    20:00 +7°C° 0 mm 3 mps 767 mmHg 79%
    21:00 +7°C° 0 mm 3 mps 767 mmHg 79%
    22:00 +7°C° 0 mm 3 mps 768 mmHg 82%
    23:00 +5°C° 0 mm 3 mps 768 mmHg 84%

    21 February, Thursday

    Time Temperature Precipitation Wind Pressure Humidity
    00:00 +5°C° 0 mm 3 mps 768 mmHg 87%
    01:00 +5°C° 0 mm 3 mps 768 mmHg 88%
    02:00 +5°C° 0 mm 3 mps 768 mmHg 90%
    03:00 +4°C° 0 mm 3 mps 768 mmHg 92%
    04:00 +4°C° 0 mm 3 mps 768 mmHg 92%
    05:00 +4°C° 0 mm 3 mps 768 mmHg 92%
    06:00 +4°C° 0 mm 3 mps 768 mmHg 93%
    07:00 +5°C° 0 mm 4 mps 769 mmHg 90%
    08:00 +6°C° 0 mm 4 mps 769 mmHg 88%
    09:00 +7°C° 0 mm 4 mps 769 mmHg 85%
    10:00 +8°C° 0 mm 4 mps 769 mmHg 81%
    11:00 +10°C° 0 mm 4 mps 769 mmHg 77%
    12:00 +11°C° 0 mm 4 mps 769 mmHg 73%
    13:00 +12°C° 0 mm 4 mps 769 mmHg 73%
    14:00 +12°C° 0 mm 4 mps 769 mmHg 73%
    15:00 +12°C° 0 mm 3 mps 769 mmHg 73%
    16:00 +11°C° 0 mm 3 mps 770 mmHg 78%
    17:00 +10°C° 0 mm 2 mps 770 mmHg 83%
    18:00 +9°C° 0 mm 2 mps 770 mmHg 88%
    19:00 +9°C° 0 mm 2 mps 771 mmHg 89%
    20:00 +8°C° 0 mm 2 mps 771 mmHg 89%
    21:00 +8°C° 0 mm 2 mps 771 mmHg 89%
    22:00 +8°C° 0 mm 2 mps 772 mmHg 90%
    23:00 +7°C° 0 mm 2 mps 772 mmHg 91%

    22 February, Friday

    Time Temperature Precipitation Wind Pressure Humidity
    00:00 +7°C° 0 mm 2 mps 772 mmHg 92%
    01:00 +7°C° 0 mm 2 mps 772 mmHg 92%
    02:00 +6°C° 0 mm 2 mps 772 mmHg 92%
    03:00 +6°C° 0 mm 2 mps 773 mmHg 93%
    04:00 +6°C° 0 mm 2 mps 773 mmHg 93%
    05:00 +6°C° 0 mm 2 mps 773 mmHg 94%
    06:00 +5°C° 0 mm 2 mps 773 mmHg 94%
    07:00 +6°C° 0 mm 2 mps 773 mmHg 91%
    08:00 +7°C° 0 mm 2 mps 774 mmHg 88%
    09:00 +9°C° 0 mm 1 mps 774 mmHg 85%
    10:00 +10°C° 0 mm 2 mps 774 mmHg 80%
    11:00 +12°C° 0 mm 2 mps 774 mmHg 75%
    12:00 +14°C° 0 mm 2 mps 774 mmHg 71%
    13:00 +14°C° 0 mm 2 mps 774 mmHg 70%
    14:00 +14°C° 0 mm 2 mps 774 mmHg 70%
    15:00 +15°C° 0 mm 2 mps 774 mmHg 70%
    16:00 +14°C° 0 mm 2 mps 774 mmHg 74%
    17:00 +13°C° 0 mm 2 mps 774 mmHg 79%
    18:00 +12°C° 0 mm 2 mps 775 mmHg 84%
    19:00 +10°C° 0 mm 2 mps 775 mmHg 86%
    20:00 +9°C° 0 mm 2 mps 775 mmHg 88%
    21:00 +8°C° 0 mm 3 mps 775 mmHg 90%
    22:00 +7°C° 0 mm 3 mps 776 mmHg 90%
    23:00 +7°C° 0 mm 3 mps 776 mmHg 89%
    Show more